Location: Cactus School
(34.5700°N, 118.0931°W)
Time: 13:20:55
(UTC-08:00)

Tiros 1 - Pass Details

Date: 22 November 2019
Orbit: 630 x 664 km, 48.4° (Epoch: 08 December)

Event Time Altitude Azimuth Distance (km) Brightness Sun altitude
Rises 16:45:12 0° 312° (NW) 2,919 10.9 -1.0°
Reaches altitude 10° 16:48:10 10° 331° (NNW) 2,013 9.8 -1.6°
Maximum altitude 16:51:24 18° 15° (NNE) 1,534 8.8 -2.2°
Drops below altitude 10° 16:54:39 10° 60° (ENE) 2,020 9.0 -2.8°
Enters shadow 16:56:33 - 74° (ENE) 2,581 9.5 -3.2°
Sets 16:57:38 0° 79° (E) 2,934 - -3.4°
